• In Belarus
  • List of Countries
  • For 7 days
  • Water Temperature
  • Satellite Maps
  • Weather Map
  • Weather Widgets
  • user-avatar
    Login

    Hourly Weather Orange Walk

    Today, 19 December, Tuesday

    Time Temperature Precipitation Wind Pressure Humidity
    00:00 +24°C° 0.1 mm 2 mps 761 mmHg 99%
    01:00 +24°C° 0.1 mm 2 mps 761 mmHg 99%
    02:00 +24°C° 0.1 mm 2 mps 761 mmHg 99%
    03:00 +24°C° 0.1 mm 1 mps 761 mmHg 99%
    04:00 +24°C° 0.1 mm 1 mps 761 mmHg 98%
    05:00 +24°C° 0.1 mm 1 mps 761 mmHg 98%
    06:00 +24°C° 0.1 mm 1 mps 761 mmHg 98%
    07:00 +26°C° 0 mm 2 mps 761 mmHg 92%
    08:00 +27°C° 0 mm 2 mps 762 mmHg 86%
    09:00 +29°C° 0 mm 2 mps 762 mmHg 80%
    10:00 +30°C° 0.1 mm 3 mps 762 mmHg 74%
    11:00 +31°C° 0.1 mm 3 mps 762 mmHg 68%
    12:00 +33°C° 0.1 mm 3 mps 761 mmHg 63%
    13:00 +31°C° 0.2 mm 3 mps 761 mmHg 65%
    14:00 +31°C° 0.2 mm 3 mps 760 mmHg 67%
    15:00 +31°C° 0.2 mm 3 mps 759 mmHg 69%
    16:00 +29°C° 0.1 mm 3 mps 759 mmHg 76%
    17:00 +27°C° 0.1 mm 2 mps 759 mmHg 83%
    18:00 +26°C° 0.1 mm 2 mps 759 mmHg 90%
    19:00 +25°C° 0 mm 2 mps 760 mmHg 93%
    20:00 +25°C° 0 mm 1 mps 760 mmHg 95%
    21:00 +24°C° 0 mm 1 mps 761 mmHg 97%
    22:00 +24°C° 0.1 mm 1 mps 761 mmHg 98%
    23:00 +24°C° 0.1 mm 1 mps 761 mmHg 98%

    Tomorrow, 20 December, Wednesday

    Time Temperature Precipitation Wind Pressure Humidity
    00:00 +24°C° 0.1 mm 1 mps 761 mmHg 98%
    01:00 +24°C° 0.1 mm 1 mps 760 mmHg 98%
    02:00 +24°C° 0.1 mm 1 mps 760 mmHg 98%
    03:00 +24°C° 0.1 mm 1 mps 760 mmHg 98%
    04:00 +24°C° 0.2 mm 1 mps 760 mmHg 98%
    05:00 +24°C° 0.2 mm 1 mps 760 mmHg 98%
    06:00 +24°C° 0.2 mm 1 mps 760 mmHg 98%
    07:00 +25°C° 0.2 mm 1 mps 760 mmHg 95%
    08:00 +26°C° 0.2 mm 2 mps 761 mmHg 91%
    09:00 +28°C° 0.2 mm 2 mps 761 mmHg 88%
    10:00 +28°C° 0.4 mm 2 mps 761 mmHg 83%
    11:00 +29°C° 0.4 mm 2 mps 761 mmHg 79%
    12:00 +30°C° 0.4 mm 2 mps 760 mmHg 74%
    13:00 +30°C° 0.3 mm 2 mps 760 mmHg 74%
    14:00 +30°C° 0.3 mm 2 mps 759 mmHg 73%
    15:00 +30°C° 0.3 mm 2 mps 758 mmHg 73%
    16:00 +29°C° 0 mm 2 mps 758 mmHg 79%
    17:00 +27°C° 0 mm 2 mps 758 mmHg 86%
    18:00 +26°C° 0 mm 1 mps 758 mmHg 92%
    19:00 +25°C° 0 mm 1 mps 759 mmHg 94%
    20:00 +25°C° 0 mm 1 mps 759 mmHg 96%
    21:00 +24°C° 0 mm 1 mps 760 mmHg 98%
    22:00 +24°C° 0 mm 1 mps 760 mmHg 98%
    23:00 +24°C° 0 mm 1 mps 759 mmHg 98%

    Day after tomorrow, 21 December, Thursday

    Time Temperature Precipitation Wind Pressure Humidity
    00:00 +24°C° 0 mm 1 mps 759 mmHg 99%
    01:00 +24°C° 0 mm 1 mps 759 mmHg 99%
    02:00 +24°C° 0 mm 1 mps 759 mmHg 99%
    03:00 +24°C° 0 mm 1 mps 758 mmHg 99%
    04:00 +24°C° 0 mm 1 mps 758 mmHg 99%
    05:00 +24°C° 0 mm 1 mps 759 mmHg 98%
    06:00 +24°C° 0 mm 1 mps 759 mmHg 98%
    07:00 +25°C° 0 mm 1 mps 759 mmHg 92%
    08:00 +27°C° 0 mm 2 mps 760 mmHg 86%
    09:00 +28°C° 0 mm 2 mps 760 mmHg 80%
    10:00 +29°C° 0.1 mm 2 mps 760 mmHg 74%
    11:00 +31°C° 0.1 mm 3 mps 760 mmHg 67%
    12:00 +33°C° 0.1 mm 3 mps 759 mmHg 60%
    13:00 +33°C° 0 mm 3 mps 759 mmHg 60%
    14:00 +33°C° 0 mm 3 mps 758 mmHg 59%
    15:00 +33°C° 0 mm 3 mps 757 mmHg 58%
    16:00 +30°C° 0 mm 3 mps 758 mmHg 67%
    17:00 +28°C° 0 mm 2 mps 758 mmHg 77%
    18:00 +26°C° 0 mm 2 mps 758 mmHg 86%
    19:00 +26°C° 0.1 mm 2 mps 759 mmHg 90%
    20:00 +25°C° 0.1 mm 2 mps 759 mmHg 94%
    21:00 +25°C° 0.1 mm 2 mps 760 mmHg 97%
    22:00 +25°C° 0.1 mm 2 mps 759 mmHg 98%
    23:00 +24°C° 0.1 mm 2 mps 759 mmHg 98%

    22 December, Friday

    Time Temperature Precipitation Wind Pressure Humidity
    00:00 +24°C° 0.1 mm 2 mps 759 mmHg 98%
    01:00 +24°C° 0.1 mm 2 mps 759 mmHg 98%
    02:00 +24°C° 0.1 mm 2 mps 758 mmHg 98%
    03:00 +24°C° 0.1 mm 2 mps 758 mmHg 98%
    04:00 +24°C° 0.1 mm 2 mps 758 mmHg 98%
    05:00 +24°C° 0.1 mm 2 mps 758 mmHg 98%
    06:00 +24°C° 0.1 mm 2 mps 759 mmHg 98%
    07:00 +26°C° 0 mm 2 mps 759 mmHg 92%
    08:00 +27°C° 0 mm 3 mps 760 mmHg 86%
    09:00 +29°C° 0 mm 3 mps 760 mmHg 79%
    10:00 +30°C° 0.1 mm 4 mps 760 mmHg 73%
    11:00 +32°C° 0.1 mm 4 mps 759 mmHg 66%
    12:00 +33°C° 0.1 mm 4 mps 759 mmHg 59%
    13:00 +33°C° 0 mm 4 mps 758 mmHg 60%
    14:00 +32°C° 0 mm 4 mps 758 mmHg 61%
    15:00 +32°C° 0 mm 4 mps 757 mmHg 62%
    16:00 +30°C° 0 mm 3 mps 758 mmHg 70%
    17:00 +28°C° 0 mm 3 mps 758 mmHg 78%
    18:00 +26°C° 0 mm 2 mps 758 mmHg 86%
    19:00 +26°C° 0 mm 2 mps 759 mmHg 89%
    20:00 +25°C° 0 mm 2 mps 759 mmHg 92%
    21:00 +25°C° 0 mm 2 mps 760 mmHg 96%
    22:00 +25°C° 0 mm 2 mps 760 mmHg 96%
    23:00 +25°C° 0 mm 2 mps 759 mmHg 96%

    23 December, Saturday

    Time Temperature Precipitation Wind Pressure Humidity
    00:00 +24°C° 0 mm 2 mps 759 mmHg 96%
    01:00 +24°C° 0 mm 2 mps 759 mmHg 96%
    02:00 +25°C° 0 mm 2 mps 759 mmHg 96%
    03:00 +25°C° 0 mm 2 mps 759 mmHg 97%
    04:00 +24°C° 0 mm 2 mps 759 mmHg 97%
    05:00 +24°C° 0 mm 2 mps 759 mmHg 97%
    06:00 +24°C° 0 mm 2 mps 759 mmHg 97%
    07:00 +26°C° 0 mm 2 mps 760 mmHg 89%
    08:00 +28°C° 0 mm 3 mps 761 mmHg 81%
    09:00 +29°C° 0 mm 3 mps 761 mmHg 74%
    10:00 +30°C° 0 mm 3 mps 761 mmHg 69%
    11:00 +31°C° 0 mm 3 mps 760 mmHg 64%
    12:00 +33°C° 0 mm 3 mps 760 mmHg 59%
    13:00 +33°C° 0 mm 3 mps 759 mmHg 59%
    14:00 +33°C° 0 mm 3 mps 759 mmHg 59%
    15:00 +33°C° 0 mm 3 mps 758 mmHg 60%
    16:00 +30°C° 0.3 mm 3 mps 758 mmHg 70%
    17:00 +28°C° 0.3 mm 2 mps 759 mmHg 80%
    18:00 +26°C° 0.3 mm 2 mps 759 mmHg 90%
    19:00 +26°C° 0.3 mm 2 mps 760 mmHg 93%
    20:00 +25°C° 0.3 mm 2 mps 760 mmHg 95%
    21:00 +25°C° 0.3 mm 2 mps 761 mmHg 97%
    22:00 +24°C° 0.2 mm 2 mps 760 mmHg 98%
    23:00 +24°C° 0.2 mm 2 mps 760 mmHg 98%

    24 December, Sunday

    Time Temperature Precipitation Wind Pressure Humidity
    00:00 +24°C° 0.2 mm 2 mps 760 mmHg 98%
    01:00 +24°C° 0.2 mm 1 mps 760 mmHg 98%
    02:00 +24°C° 0.2 mm 1 mps 760 mmHg 98%
    03:00 +24°C° 0.2 mm 1 mps 759 mmHg 99%
    04:00 +24°C° 0.4 mm 1 mps 760 mmHg 99%
    05:00 +24°C° 0.4 mm 1 mps 760 mmHg 98%
    06:00 +24°C° 0.4 mm 1 mps 760 mmHg 98%
    07:00 +25°C° 0.2 mm 1 mps 760 mmHg 95%
    08:00 +26°C° 0.2 mm 1 mps 761 mmHg 92%
    09:00 +27°C° 0.2 mm 2 mps 761 mmHg 88%
    10:00 +28°C° 0.3 mm 2 mps 761 mmHg 82%
    11:00 +29°C° 0.3 mm 2 mps 760 mmHg 75%
    12:00 +30°C° 0.3 mm 2 mps 760 mmHg 69%
    13:00 +30°C° 0.2 mm 2 mps 759 mmHg 68%
    14:00 +30°C° 0.2 mm 2 mps 758 mmHg 66%
    15:00 +31°C° 0.2 mm 2 mps 758 mmHg 65%
    16:00 +29°C° 0 mm 2 mps 758 mmHg 73%
    17:00 +27°C° 0 mm 2 mps 758 mmHg 81%
    18:00 +26°C° 0 mm 2 mps 759 mmHg 90%
    19:00 +25°C° 0 mm 1 mps 759 mmHg 92%
    20:00 +25°C° 0 mm 1 mps 759 mmHg 95%
    21:00 +24°C° 0 mm 1 mps 760 mmHg 98%
    22:00 +24°C° 0 mm 1 mps 760 mmHg 98%
    23:00 +24°C° 0 mm 1 mps 760 mmHg 98%
    Show more